This is the latest recevied weather packets stored in our database for station/object LU4EGV-13. If no packets are shown the sender has not sent any weather packets the latest 10 day(s).
| Time | Temp. | Humidity | Pressure | Rain* | Wind** | Luminosity | Snow |
|---|---|---|---|---|---|---|---|
| 1777551468 | 16.11° C | 89% | 1013.2 hPa | 0 mm | - | - | - |
| 1777550862 | 13.33° C | 92% | 1013.3 hPa | 0 mm | - | - | - |
| 1777550257 | 12.22° C | 90% | 1013.4 hPa | 0 mm | - | - | - |
| 1777549650 | 11.11° C | 91% | 1013.3 hPa | 0 mm | - | - | - |
| 1777549043 | 10.56° C | 91% | 1013.2 hPa | 0 mm | - | - | - |
| 1777548438 | 8.89° C | 91% | 1013.2 hPa | 0 mm | - | - | - |
| 1777547831 | 8.33° C | 91% | 1013.2 hPa | 0 mm | - | - | - |
| 1777547225 | 8.33° C | 91% | 1012.8 hPa | 0 mm | - | - | - |
| 1777546621 | 8.33° C | 91% | 1013.1 hPa | 0 mm | - | - | - |
| 1777546029 | 7.78° C | 90% | 1012.8 hPa | 0 mm | - | - | - |
| 1777545407 | 7.78° C | 90% | 1012.6 hPa | 0 mm | - | - | - |
| 1777544800 | 7.78° C | 90% | 1012.5 hPa | 0 mm | - | - | - |
| 1777544193 | 7.78° C | 89% | 1012.6 hPa | 0 mm | - | - | - |
| 1777543588 | 7.78° C | 89% | 1012.6 hPa | 0 mm | - | - | - |
| 1777542982 | 7.78° C | 89% | 1012.6 hPa | 0 mm | - | - | - |
| 1777542385 | 7.78° C | 89% | 1012.5 hPa | 0 mm | - | - | - |
| 1777541770 | 8.33° C | 89% | 1012.4 hPa | 0 mm | - | - | - |
| 1777541163 | 8.33° C | 89% | 1012.4 hPa | 0 mm | - | - | - |
| 1777540557 | 8.33° C | 89% | 1012 hPa | 0 mm | - | - | - |
| 1777539950 | 8.33° C | 89% | 1012.4 hPa | 0 mm | - | - | - |
| 1777539345 | 8.33° C | 89% | 1012.3 hPa | 0 mm | - | - | - |
| 1777538737 | 8.33° C | 88% | 1012.2 hPa | 0 mm | - | - | - |
| 1777538132 | 8.33° C | 88% | 1012.2 hPa | 0 mm | - | - | - |
| 1777537526 | 8.33° C | 88% | 1012.1 hPa | 0 mm | - | - | - |
| 1777536919 | 8.33° C | 89% | 1012.1 hPa | 0 mm | - | - | - |
* Rain latest hour (hover to see other rain measurements)
** Current wind speed in m/s (hover to see current wind gust speed)